Tracking 31013 objects as of 10-Jul-2025
HD Live streaming from Space Station
objects crossing your sky now

DELTA 1 DEB

Track DELTA 1 DEB now!
10-day predictions


NORAD ID: 13533
Int'l Code: 1976-077EF
Perigee: 1,507.6 km
Apogee: 2,100.7 km
Inclination: 101.8 °
Period: 122.6 minutes
Semi major axis: 8175 km
RCS: 0.0714 m2 (small)
Launch date: July 29, 1976
Source: United States (US)
Launch site: AIR FORCE WESTERN TEST RANGE (AFWTR)

Note: This is SATELLITE DEBRIS
Your satellite tracking list
Your tracking list is empty




NASA's NSSDC Master Catalog

Two Line Element Set (TLE):
1 13533U 76077EF  25191.55666998  .00000043  00000-0  11027-2 0  9994
2 13533 101.8248 195.4321 0362740 118.5836   1.9414 11.74522282995354
Source of the keplerian elements: AFSPC